Home   Weather   Wiesbaden   Past weeks

Flag for Germany Past Weather in Wiesbaden, Hesse, Germany — Yesterday and Last 2 Weeks

Now
32 °F

Partly sunny.


Feels Like: 24 °F
Forecast: 20 / 29 °F
Wind: 9 mph from East

Location: Wiesbaden Airport

Current Time: Jan 17, 2017 at 12:06:15 pm

Latest Report: Jan 17, 2017 at 10:58 am


Visibility: N/A

Pressure: 30.60 "Hg

Humidity: 55%

Dew Point: 18 °F

Location of WiesbadenLocation

Past Weather in Wiesbaden — Graph

°F

Wiesbaden Temperature Yesterday

Maximum temperature yesterday: 33 °F (at 1:58 pm)
Minimum temperature yesterday: 21 °F (at 9:58 pm)
Average temperature yesterday: 28 °F

High & Low Weather Summary for the Past Weeks

 TemperatureHumidityPressure
High43 °F (Jan 13, 2:06 am)100% (Jan 2, 10:04 am)30.80 "Hg (Jan 2, 10:04 am)
Low14 °F (Jan 7, 3:58 am)55% (Jan 17, 10:58 am)29.13 "Hg (Jan 13, 2:06 am)
Average32 °F87%30.08 "Hg
* Reported Jan 2 10:04 am — Jan 17 10:58 am, Wiesbaden, Weather by CustomWeather, © 2017

Note: Actual official high and low records may vary slightly from our data, if they occured in-between our weather recording intervals... More about our weather records

Advertising

Wiesbaden Weather History for the Previous 24 Hours

Scroll right to see more
 ConditionsComfort  
Time TempWeatherWind HumidityBarometerVisibility
10:58 am
Tue, Jan 17
32 °FPartly sunny.9 mph55%30.60 "HgN/A
9:58 am30 °FOvercast.13 mph59%30.56 "HgN/A
8:58 am29 °FOvercast.8 mph62%30.55 "HgN/A
7:58 am28 °FOvercast.7 mph64%30.53 "HgN/A
6:58 am28 °FOvercast.5 mph64%30.52 "HgN/A
5:58 am28 °FOvercast.5 mph64%30.51 "HgN/A
4:58 am27 °FOvercast.7 mph74%30.50 "HgN/A
3:58 am27 °FOvercast.7 mph74%30.49 "HgN/A
3:23 am27 °FOvercast.7 mph74%30.49 "HgN/A
2:58 am25 °FOvercast.7 mph80%30.49 "HgN/A
1:58 am24 °FPassing clouds.9 mph81%30.47 "HgN/A
12:58 am23 °FClear.5 mph80%30.46 "HgN/A
11:58 pm
Mon, Jan 16
25 °FClear.6 mph80%30.44 "HgN/A
11:16 pm25 °FClear.6 mph80%30.43 "HgN/A
10:58 pm22 °FClear.7 mph87%30.47 "HgN/A
9:58 pm21 °FClear.No wind87%30.45 "HgN/A
8:58 pm24 °FClear.No wind83%30.43 "HgN/A
7:58 pm27 °FClear.No wind78%30.41 "HgN/A
6:58 pm28 °FClear.5 mph76%30.40 "HgN/A
5:58 pm29 °FClear.5 mph70%30.39 "HgN/A
4:58 pm31 °FClear.3 mph67%30.36 "HgN/A
3:58 pm32 °FSunny.6 mph66%30.34 "HgN/A
2:58 pm33 °FSunny.7 mph68%30.33 "HgN/A
1:58 pm33 °FSunny.10 mph71%30.31 "HgN/A
12:59 pm32 °FScattered clouds.6 mph75%30.29 "HgN/A
12:41 pm32 °FPartly sunny.6 mph64%30.29 "HgN/A
Weather by CustomWeather, © 2017

See weather overviewHow to use our weather pages